STARLINK-1283, 45389

Orbit data source: Space-Track

STARLINK-1283, 45389 is a payload satellite owned by SpaceX/Seattle (US) in LEO that was launched on Wed, 18 Mar 2020 UTC via an FALCON 9 launch vehicle from the Air Force Eastern Test Range (AFETR). Payloads include a variety of satellites, spacecraft, and rockets equipped with specific instruments for various scientific and technological missions. These include communications satellites like Starlink; space stations such as the ISS; scientific satellites like the Hubble; Earth observation satellites from companies like Planet Labs, Umbra, and HawkEye 360; GPS; miniature CubeSats for education and research; and military/defense satellites.

Loading next visibility...
STARLINK-1283 details
Identifier
45389, 2020-019AF
Orbit
LEO
Last TLE update17 hours ago
Origin
Flag of USSpaceX/Seattle (US)
ManufacturerSpaceX/Seattle
MissionOperational Commercial Communications
Bus & MotorSTARLINK, Unknown motor
Mass260 kg wet, ~248 kg dry
Launch date (UTC)
2020-03-18 (5 years ago)
Launch vehicle
FALCON 9
Launch site
Air Force Eastern Test Range (AFETR)
Object type
Payload
Rocket body
Debris
Shape & HBRBox + 1 Pan, 8.86 m
Radar Cross Section13.562 m², Large (>1 m²)

Expand to show TLE details & history

TLE from 17 hours ago
0 STARLINK-1283
1 45389U 20019AF  24348.48701860  .00001506  00000-0  12000-3 0  9994
2 45389  53.0545  12.1446 0001619  92.0426 268.0748 15.06395385262001
Epoch: 2024-12-13T11:41Z
Definitive object data (Epoch: 2024-12-13T11:41:18.407Z)
Latitude-0.00003°
Longitude114.16558°
Altitude548.143 km
Speed7.589 km/s
True Right ascension00h 48m 34s
True Declination0° 00' 00"
Sunlit
Object was in daylight at TLE epoch
Visualization TLE readout
Latitude-22.74401°
Longitude92.63908°
Altitude554.288 km
Speed7.584 km/s
Apparent Right ascension20h 18m 09s
Apparent Declination-47° 49' 50"
Sunlit
Object is in daylight
Visualization observer readout
Local Sidereal Time03:37:35
Azimuth236.236° WSW
Elevation-40.58°
Doppler factor1
Orbital elements
Apogee altitude548.618 km
Perigee altitude546.375 km
Semi-major axis6,925.633 km
Eccentricity0.0001619
Inclination53.0545°
RAAN12.1446°
Arg. of periapsis92.0426°
True anomaly268.05626°
Mean anomaly268.0748°
Eccentric anomaly268.06553°
Mean motion3.76577 °/min
BSTAR0.00012
Orbital period95.6 mins
Loading maneuver chart data...
Loading historical data...
Loading historical data...
Loading historical data...
Loading historical data...
Loading historical data...
Loading historical data...
Loading historical data...

STARLINK-1283 Visibility forecast

Observer location: undefined°, undefined

Span
Click to sort rows by Start time (UTC) header in descending order
Start Az.
Max El. time (UTC)
Max El. Az.
Max El.
End time (UTC)
End Az.
6 mins2024-12-14 05:25:36.092Z265.698° W2024-12-14 05:28:36.092Z333.74° NNW31.471°2024-12-14 05:31:36.092Z33.578° NE
6 mins2024-12-14 10:27:36.092Z330.396° NNW2024-12-14 10:30:36.092Z42.502° NE30.866°2024-12-14 10:33:36.092Z97.112° ESE
5 mins2024-12-14 12:07:36.092Z279.223° WNW2024-12-14 12:09:36.092Z233.564° WSW28.686°2024-12-14 12:12:36.092Z169.867° S
5 mins2024-12-15 03:40:36.092Z193.02° SSW2024-12-15 03:42:36.092Z135.252° SSE35.111°2024-12-15 03:45:36.092Z66.387° ENE
|